Kaneohe MCBH, HI

1:54 PM HST on April 24, 2018 (GMT -1000)
Kaneohe Bay Marine Corps Air Facility

Weather History for PHNG - April, 2013

Change the Weather History Date:

Saturday, April 6, 2013

  Actual Average Record
Temperature  
Mean Temperature 76 °F -  
Max Temperature 80 °F 76 °F 82 °F (2002)
Min Temperature 72 °F 68 °F 63 °F (2007)
Cooling Degree Days 11    
Growing Degree Days 26 (Base 50)    
Moisture  
Dew Point 71 °F    
Average Humidity 85    
Maximum Humidity 95    
Minimum Humidity 70    
Precipitation  
Precipitation 0.01 in - - ()
Sea Level Pressure  
Sea Level Pressure 30.13 in    
Wind  
Wind Speed 7 mph (ENE)    
Max Wind Speed 13 mph    
Max Gust Speed 20 mph    
Visibility 8 miles    
Events Rain    
Averages and records for this station are not official NWS values.
T = Trace of Precipitation, MM = Missing Value Source: NWS Daily Summary

Daily Weather History Graph

Daily Weather History Graph

Search for Another Location

Airport or City:

Astronomy

Apr. 06, 2013 Rise Set
Actual Time 6:19 AM HST 6:47 PM HST
Civil Twilight 5:56 AM HST 7:10 PM HST
Nautical Twilight 5:30 AM HST 7:36 PM HST
Astronomical Twilight 5:04 AM HST 8:03 PM HST
Moon 3:44 AM HST (4/6) 3:49 PM HST (4/6)
Length of Visible Light 13h 13m
Length of Day
12h 28m
Waning Crescent, 13% of the Moon is Illuminated
Apr 6
Waning Crescent
Apr 9
New
Apr 18
First Quarter
Apr 25
Full
May 2
Last Quarter

Hourly Weather History & Observations

Time (HST) Temp. Heat Index Dew Point Humidity Pressure Visibility Wind Dir Wind Speed Gust Speed Precip Events Conditions
12:00 AM - - - N/A% - - North - - N/A   Unknown
12:57 AM 74.3 °F - 69.1 °F 84% 30.12 in 7.0 mi East 4.6 mph - N/A   Overcast
1:57 AM 73.6 °F - 71.1 °F 92% 30.10 in 10.0 mi ENE 6.9 mph - N/A   Overcast
2:57 AM 72.5 °F - 71.1 °F 95% 30.09 in 7.0 mi ENE 5.8 mph - N/A   Overcast
3:57 AM 72.5 °F - 71.1 °F 95% 30.07 in 10.0 mi East 8.1 mph - N/A   Overcast
4:57 AM 74.1 °F - 71.1 °F 90% 30.08 in 10.0 mi ENE 8.1 mph - N/A   Mostly Cloudy
5:16 AM 73.4 °F - 69.8 °F 88% 30.10 in 6.2 mi East 9.2 mph - 0.01 in Rain Light Rain
5:57 AM 74.1 °F - 70.0 °F 87% 30.10 in 7.0 mi ENE 5.8 mph - 0.01 in   Mostly Cloudy
6:52 AM 73.4 °F - 71.6 °F 94% 30.13 in 6.2 mi ENE 6.9 mph - N/A   Overcast
6:57 AM 73.4 °F - 71.1 °F 92% 30.12 in 7.0 mi ENE 3.5 mph - N/A   Overcast
7:28 AM 73.4 °F - 71.6 °F 94% 30.14 in 6.2 mi ENE 8.1 mph - N/A   Overcast
7:57 AM 76.3 °F - 71.1 °F 84% 30.13 in 10.0 mi ENE 9.2 mph 19.6 mph N/A   Mostly Cloudy
8:04 AM 77.0 °F - 71.6 °F 83% 30.14 in 6.2 mi East 11.5 mph - N/A   Mostly Cloudy
8:57 AM 76.3 °F - 71.1 °F 84% 30.14 in 10.0 mi East 10.4 mph 18.4 mph N/A   Overcast
9:08 AM 77.0 °F - 69.8 °F 78% 30.16 in 6.2 mi East 9.2 mph 18.4 mph N/A   Mostly Cloudy
9:57 AM 77.0 °F - 70.0 °F 79% 30.15 in 10.0 mi East 8.1 mph 16.1 mph N/A   Mostly Cloudy
10:04 AM - - - N/A% 30.16 in 6.2 mi ENE 8.1 mph - N/A   Mostly Cloudy
10:16 AM 78.8 °F - 71.6 °F 78% 30.16 in 6.2 mi East 9.2 mph - N/A   Scattered Clouds
10:57 AM 78.8 °F - 71.1 °F 77% 30.15 in 10.0 mi NE 8.1 mph 17.3 mph N/A   Scattered Clouds
11:57 AM 78.8 °F - 71.1 °F 77% 30.14 in 10.0 mi NE 5.8 mph - 0.00 in Rain Light Rain
12:04 PM - - - N/A% 30.16 in 6.2 mi ENE 6.9 mph - 0.00 in Rain Light Rain
12:11 PM - - - N/A% 30.15 in 6.2 mi ENE 10.4 mph - 0.00 in   Overcast
12:57 PM 78.8 °F - 72.0 °F 79% 30.12 in 10.0 mi ENE 8.1 mph - 0.00 in   Mostly Cloudy
1:57 PM 80.6 °F 84.7 °F 72.0 °F 75% 30.09 in 10.0 mi East 11.5 mph 18.4 mph N/A   Mostly Cloudy
2:57 PM 80.6 °F 84.7 °F 72.0 °F 75% 30.08 in 10.0 mi ESE 11.5 mph 19.6 mph N/A   Scattered Clouds
3:57 PM 80.6 °F 84.4 °F 71.1 °F 73% 30.07 in 10.0 mi East 12.7 mph 18.4 mph N/A   Scattered Clouds
4:57 PM 80.6 °F 83.9 °F 70.0 °F 70% 30.08 in 10.0 mi East 5.8 mph - N/A   Mostly Cloudy
5:39 PM 78.8 °F - 69.8 °F 74% 30.10 in 6.2 mi East 8.1 mph - N/A   Mostly Cloudy
5:57 PM 78.8 °F - 70.0 °F 74% 30.09 in 10.0 mi Variable 4.6 mph - N/A   Scattered Clouds
6:04 PM - - - N/A% 30.10 in 6.2 mi ESE 6.9 mph - N/A   Overcast
6:17 PM 77.0 °F - 71.6 °F 83% 30.11 in 6.2 mi Variable 4.6 mph - N/A   Scattered Clouds
6:57 PM 77.0 °F - 71.1 °F 82% 30.10 in 10.0 mi East 5.8 mph - N/A   Scattered Clouds
7:04 PM 75.2 °F - 69.8 °F 83% 30.12 in 6.2 mi Variable 6.9 mph - N/A   Overcast
7:55 PM 75.2 °F - 71.6 °F 89% 30.13 in 6.2 mi East 5.8 mph - N/A   Mostly Cloudy
7:57 PM 75.2 °F - 71.1 °F 87% 30.12 in 10.0 mi Variable 6.9 mph - N/A   Mostly Cloudy
8:57 PM 75.2 °F - 71.1 °F 87% 30.14 in 10.0 mi ESE 9.2 mph - N/A   Scattered Clouds
9:04 PM - - - N/A% 30.16 in 6.2 mi East 4.6 mph - N/A   Overcast
9:17 PM 73.4 °F - 71.6 °F 94% 30.17 in 6.2 mi Variable 6.9 mph - N/A   Scattered Clouds
9:57 PM 73.4 °F - 71.1 °F 92% 30.16 in 10.0 mi Variable 6.9 mph - N/A   Scattered Clouds
10:57 PM 73.4 °F - 70.0 °F 89% 30.17 in 10.0 mi ENE 5.8 mph - N/A   Scattered Clouds
11:04 PM 73.4 °F - 71.6 °F 94% 30.18 in 6.2 mi ENE 5.8 mph - N/A   Overcast
11:57 PM 73.4 °F - 71.1 °F 92% 30.16 in 10.0 mi ENE 9.2 mph - N/A   Overcast